Location: Risskov
(56.1972°N, 10.2480°E)
Time: 00:31:45
(UTC+00:00)

COSMOS 2428 - Pass Details

Date: 05 July 2020
Orbit: 844 x 859 km, 70.9° (Epoch: 03 August)

Event Time Altitude Azimuth Distance (km) Brightness Sun altitude
Rises 21:59:47 0° 215° (SW) 3,395 5.5 -9.1°
Reaches altitude 10° 22:02:13 10° 216° (SW) 2,464 4.8 -9.3°
Maximum altitude 22:07:54 84° 305° (NW) 858 2.8 -9.5°
Drops below altitude 10° 22:13:37 10° 35° (NE) 2,483 5.7 -9.7°
Sets 22:16:05 0° 36° (NE) 3,424 6.5 -9.8°
